{"data":{"norad_id":62195,"epoch":"2026-09-21T08:00:45.884160Z","epoch_age_seconds":105821,"freshness":"FRESH","line1":"1 62195U 24229D   26264.33386440  .00008202  00000+0  30720-3 0  9999","line2":"2 62195  43.0024 245.7340 0001231 270.3958  89.6752 15.27585881100484","mean_motion":15.27585881,"eccentricity":0.0001231,"inclination_deg":43.0024,"raan_deg":245.734,"arg_perigee_deg":270.3958,"mean_anomaly_deg":89.6752,"bstar":0.0003072,"rev_number":10048,"period_min":94.266385799359,"perigee_km":482.18687642581,"apogee_km":483.87609610713,"semimajor_km":6861.1684862665,"source":"CELESTRAK","updated_at":"2026-09-22T09:00:49.539455Z"}}